Regional Weather Roundup
Issued by NWS

Home | Current Version | Previous Version | Text Only | Print | Product List | Glossary Off
Versions: 1 2 3 4 5 6 7 8 9 10 11 12 13 14 15 16 17 18 19 20 21 22 23 24 25 26 27 28 29 30 31 32 33 34 35 36 37 38 39 40 41 42 43 44 45 46 47 48 49 50

000
ASUS43 KFSD 271810
RWRSD

WEATHER ROUNDUP FOR SOUTH DAKOTA
NATIONAL WEATHER SERVICE SIOUX FALLS SD
100 PM CDT WED MAY 27 2015

NOTE: "FAIR" INDICATES FEW OR NO CLOUDS BELOW 12,000 FEET WITH NO
SIGNIFICANT WEATHER AND/OR OBSTRUCTIONS TO VISIBILITY.


SDZ001>005-009-010-012>017-271900-
NORTHWEST AND NORTH CENTRAL SOUTH DAKOTA

CITY           SKY/WX    TMP DP  RH WIND       PRES   REMARKS
BUFFALO          N/A     71  53  52 SE7       29.89F
FAITH            N/A     72  53  51 S18       29.97S
MOBRIDGE       MOSUNNY   79  50  36 S10       29.96F
$$

SDZ012>016-024>037-041>051-057-063-072>074-271900-
SOUTHWEST AND SOUTH CENTRAL SOUTH DAKOTA

CITY           SKY/WX    TMP DP  RH WIND       PRES   REMARKS
RAPID CTY ARPT PTSUNNY   71  55  56 S15G22    29.98F
PIERRE         MOSUNNY   79  49  34 S17G24    29.99S
CUSTER         CLOUDY    60  48  64 S6        30.06F THUNDER
ELLSWORTH AFB  PTSUNNY   69  56  61 SE13      29.97F
PHILIP         CLOUDY    72  55  55 S18G28    29.99F
PINE RIDGE     MOSUNNY   72  53  51 S16       30.01F
SPEARFISH      FAIR      64  54  68 NE7       30.00S
WINNER         FAIR      75  50  41 S18       30.04S
$$

SDZ004>011-016>023-039-040-271900-
NORTHEAST SOUTH DAKOTA

CITY           SKY/WX    TMP DP  RH WIND       PRES   REMARKS
ABERDEEN       MOSUNNY   83  48  29 CALM      29.98S
WATERTOWN      FAIR      79  48  33 NW9       30.01S
BROOKINGS      FAIR      79  48  34 W7        30.01F
SISSETON         N/A     81  48  31 N8        29.96S
$$

SDZ017-020-022-023-036>040-048>070-271900-
SOUTHEAST SOUTH DAKOTA

CITY           SKY/WX    TMP DP  RH WIND       PRES   REMARKS
SIOUX FALLS    FAIR      80  51  36 NW8       30.02S
HURON          SUNNY     81  49  32 CALM      30.00F
CHAMBERLAIN    PTSUNNY   77  52  41 S14       30.03S
MITCHELL       SUNNY     80  52  37 VRB5      30.02F
YANKTON        FAIR      79  52  38 W3        30.02F
$$

ABBREVIATIONS USED IN REMARKS
   TC - TEMPERATURE IN CELSIUS
  WCI - WIND CHILL INDEX
   HX - HEAT INDEX
  VSB - VISIBILITY




USA.gov is the U.S. government's official web portal to all federal, state and local government web resources and services.